Regional Weather Roundup
Issued by NWS Newport/Morehead, NC

Home | Current Version | Previous Version | Text Only | Print | Product List | Glossary On
Versions: 1 2 3 4 5 6 7 8 9 10 11 12 13 14 15 16 17 18 19 20 21 22 23 24 25 26 27 28 29 30 31 32 33 34 35 36 37 38 39 40 41 42 43 44 45 46 47 48 49 50
000
ASUS42 KMHX 212110
RWRMHX
WEATHER ROUNDUP FOR EASTERN NORTH CAROLINA
NATIONAL WEATHER SERVICE NEWPORT/MOREHEAD CITY NC
400 PM EST SUN DEC 21 2014

NOTE: "FAIR" INDICATES FEW OR NO CLOUDS BELOW 12,000 FEET
WITH NO SIGNIFICANT WEATHER AND/OR OBSTRUCTIONS TO VISIBILITY

NCZ015>017-031-032-045>047-102-103-212200-
NORTH COAST

CITY           SKY/WX    TMP DP  RH WIND       PRES   REMARKS
EDENTON        CLEAR     47  35  64 E8        30.25S
ELIZABETH CITY CLEAR     47  32  56 NE10      30.27S
KITTY HAWK     CLEAR     45  37  72 NE7       30.25R
MANTEO         CLEAR     45  37  72 NE9       30.26S

$$

NCZ045>047-081-094-103-104-212200-
CENTRAL COAST

CITY           SKY/WX    TMP DP  RH WIND       PRES   REMARKS
FRISCO         CLOUDY    46  41  82 NE9       30.24R
SWANQUARTER      N/A     48 N/A N/A NE9G15    30.21S

$$

NCZ095-097-098-100-101-212200-
SOUTHERN COAST

CITY           SKY/WX    TMP DP  RH WIND       PRES   REMARKS
BEAUFORT       CLOUDY    47  39  74 NE12      30.22F
CEDAR ISLAND     N/A     46 N/A N/A NE18      30.27S
JACKSONVILLE   CLOUDY    49  36  61 NE12      30.22R
PINEY ISLAND   PTCLDY    49  39  68 NE14      30.23F
WILMINGTON     CLOUDY    50  38  63 NE9       30.20R


$$

NCZ011>013-027>030-043-044-078>080-089-090>093-098-212200-
COASTAL PLAIN

CITY           SKY/WX    TMP DP  RH WIND       PRES   REMARKS
AHOSKIE        CLEAR     46  31  56 N3        30.27R
CLINTON        MOSUNNY   48  38  68 N6        30.23R
ELIZABETHTOWN  CLOUDY    50  38  62 CALM      30.20S
GOLDSBORO      PTCLDY    47  40  77 NE5       30.23R
GREENVILLE     CLOUDY    48  34  57 E5        30.25R
HAVELOCK       MOCLDY    48  37  65 NE9       30.23F
KENANSVILLE    PTSUNNY   47  36  63 N7        30.24R
KINSTON        MOCLDY    48  34  57 NE7       30.24S
NEW BERN       PTCLDY    49  35  58 NE10      30.24S
RICHLANDS      CLOUDY    46  36  66 N9        30.22S
ROCKY MOUNT    CLOUDY    48  33  56 NE5       30.25R
WASHINGTON     CLOUDY    47  33  57 NE3       30.25R
WHITEVILLE     CLOUDY    51  38  60 NE7       30.18F

$$

AMZ130-135-150-152-154-156-158-170-250-252-270-ANZ085-086-088-633-658-670-212200-
MARINE OBSERVATIONS

STATION/POSITION TIME  TEMP    WIND        PRES    WAVE   SWELL
                       AIR SEA DIR/SP/G            HT/PER HT/PER
                 (UTC) (F)     (DEG/KT/KT) (MB)    (FT/S) (FT/S)
CHESAPEAKE LIGHT 2000   40      30/  9/ 10 1025.8
64 E VA BEACH    2100   45 54   30/ 14/ 17 1024.1    2/ 4   2/10
DUCK             2100   44 46   30/ 13/ 14 1023.9
2 E DUCK         2100      46                N/A     2/ 4
10 NE DUCK       2100      51                N/A     2/ 3
OREGON INLET     2100   46 47   20/  9/ 14 1024.4
13E OREGON INLT  2100      53                N/A     3/ 4
HATTERAS CG      2100   47 50   30/ 12/ 16 1023.9
DIAMOND BUOY     2100   54                 1023.2    3/ 5
17 S OCRACOKE    NOT AVBL
CAPE LOOKOUT     2000   46      20/ 13/ 19 1023.2
BEAUFORT LAB     2100   47 50   30/  7/ 12 1022.2
30 SE NEW RIVER  2100   50 60   40/ 21/ 25 1022.3    5/ 5
5 SE WRIGHTSVLE  NOT AVBL
225 S CAPE HAT   2012   69 71  330/  6/  8 1018.4    7/ 7   7/ 7
41 SE CHARLESTON 2100   62 69   40/ 21/ 25 1018.7    7/ 6   2/16

$$


USA.gov is the U.S. government's official web portal to all federal, state and local government web resources and services.